Date String (YYYY-MM-DD hh:mm:ss) UTC,Instrument flags,Ambient pressure (hPa),Sample flow (lpm),Bypass flow (lpm),Sample temperature (°C),Ambient temperature (°C),ASC tube jacket temperature (°C),LED temperature (°C),Box temperature (°C),Sample RH (%),Span deviation,Mass concentration (μg/m³),Mass concentration (μg/m³),Mass concentration (μg/m³)
DateTimeUTC,F1_M11,P_M11,Q1_M11,Q2_M11,T1_M11,T2_M11,T3_M11,T4_M11,T5_M11,U1_M11,ZSPAN_M11,X0_M11,X2_M11,X1_M11
2021-11-24 21:00:00,,0827.6,5.00,0.00,23.9,22.9,00.0,32.9,25.5,06.2,0000.0,0002.28,0000.66,0000.46
2021-11-24 21:01:00,,0827.6,5.01,0.00,23.9,22.9,00.0,32.9,25.5,06.3,0000.0,0002.18,0000.64,0000.46
2021-11-24 21:02:00,,0827.6,4.99,0.00,23.9,22.9,00.0,32.9,25.5,06.4,0000.0,0002.09,0000.61,0000.45
2021-11-24 21:03:00,,0827.7,4.99,0.00,23.9,22.9,00.0,32.9,25.5,06.3,0000.0,0001.94,0000.60,0000.44
2021-11-24 21:04:00,,0827.8,5.00,0.00,23.9,22.9,00.0,32.9,25.5,06.3,0000.0,0002.05,0000.62,0000.44
2021-11-24 21:05:00,,0827.7,5.00,0.00,23.9,22.9,00.0,32.9,25.5,06.4,0000.0,0002.07,0000.62,0000.44
2021-11-24 21:06:00,,0827.7,5.00,0.00,23.9,22.9,00.0,32.9,25.6,06.4,0000.0,0002.16,0000.64,0000.44
2021-11-24 21:07:00,,0827.7,5.01,0.00,23.9,22.9,00.0,32.9,25.5,06.3,0000.0,0002.25,0000.66,0000.44
2021-11-24 21:08:00,,0827.8,5.00,0.00,23.9,22.9,00.0,32.9,25.5,06.4,0000.0,0002.30,0000.67,0000.43
2021-11-24 21:09:00,,0827.8,5.00,0.00,23.9,22.9,00.0,32.9,25.6,06.5,0000.0,0001.75,0000.64,0000.42
2021-11-24 21:10:00,,0827.8,5.00,0.00,23.9,22.9,00.0,32.9,25.6,06.6,0000.0,0001.59,0000.66,0000.42
2021-11-24 21:11:00,,0827.9,4.99,0.00,23.9,22.9,00.0,32.9,25.6,06.6,0000.0,0001.57,0000.65,0000.41
2021-11-24 21:12:00,,0827.9,5.01,0.00,23.9,22.9,00.0,32.9,25.6,06.6,0000.0,0001.61,0000.65,0000.41
2021-11-24 21:13:00,,0827.8,4.98,0.00,23.9,22.9,00.0,32.9,25.6,06.6,0000.0,0002.40,0000.64,0000.41
2021-11-24 21:14:00,,0827.9,5.00,0.00,23.9,23.0,00.0,32.9,25.6,06.6,0000.0,0002.45,0000.65,0000.41
2021-11-24 21:15:00,,0827.9,5.00,0.00,23.9,23.0,00.0,32.9,25.7,06.5,0000.0,0002.35,0000.65,0000.41
2021-11-24 21:16:00,,0827.9,4.99,0.00,23.9,23.0,00.0,32.9,25.7,06.5,0000.0,0002.34,0000.65,0000.41
2021-11-24 21:17:00,,0827.9,5.01,0.00,23.9,23.1,00.0,32.9,25.7,06.5,0000.0,0002.57,0000.62,0000.41
2021-11-24 21:18:00,,0827.9,5.00,0.00,23.9,23.1,00.0,32.9,25.7,06.5,0000.0,0002.62,0000.62,0000.40
2021-11-24 21:19:00,,0828.0,5.00,0.00,24.0,23.0,00.0,32.9,25.7,06.5,0000.0,0002.69,0000.61,0000.41
2021-11-24 21:20:00,,0828.0,5.00,0.00,24.0,23.1,00.0,32.9,25.7,06.5,0000.0,0002.65,0000.61,0000.41
2021-11-24 21:21:00,,0828.1,5.00,0.00,24.0,23.1,00.0,32.9,25.7,06.3,0000.0,0002.45,0000.59,0000.41
2021-11-24 21:22:00,,0828.1,5.01,0.00,24.0,23.1,00.0,32.9,25.7,06.5,0000.0,0002.48,0000.61,0000.42
2021-11-24 21:23:00,,0828.1,4.99,0.00,24.0,23.1,00.0,33.0,25.8,07.4,0000.0,0002.66,0000.66,0000.41
2021-11-24 21:24:00,,0828.3,5.00,0.00,24.0,23.2,00.0,33.0,25.9,07.5,0000.0,0002.03,0000.69,0000.42
2021-11-24 21:25:00,,0828.2,5.00,0.00,24.0,23.2,00.0,33.0,25.9,07.6,0000.0,0002.08,0000.69,0000.41
2021-11-24 21:26:00,,0828.2,5.00,0.00,24.0,23.2,00.0,33.0,25.9,08.1,0000.0,0002.20,0000.69,0000.42
2021-11-24 21:27:00,,0828.2,5.01,0.00,24.0,23.2,00.0,33.0,25.8,08.3,0000.0,0003.14,0000.71,0000.42
2021-11-24 21:28:00,,0828.4,4.99,0.00,24.0,23.2,00.0,33.0,25.7,08.3,0000.0,0002.91,0000.75,0000.42
2021-11-24 21:29:00,,0828.2,5.00,0.00,23.9,23.2,00.0,33.0,25.7,08.3,0000.0,0002.80,0000.73,0000.43
2021-11-24 21:30:00,,0828.3,5.00,0.00,23.9,23.1,00.0,33.0,25.7,08.4,0000.0,0002.79,0000.74,0000.43
2021-11-24 21:31:00,,0828.3,5.00,0.00,23.9,23.1,00.0,33.0,25.6,08.4,0000.0,0002.81,0000.75,0000.44
2021-11-24 21:32:00,,0828.3,5.00,0.00,23.9,23.1,00.0,32.9,25.6,08.5,0000.0,0002.88,0000.78,0000.44
2021-11-24 21:33:00,,0828.3,5.00,0.00,23.9,23.1,00.0,32.9,25.6,08.5,0000.0,0002.90,0000.79,0000.44
2021-11-24 21:34:00,,0828.3,5.02,0.00,23.8,23.1,00.0,32.9,25.6,08.5,0000.0,0003.90,0000.77,0000.45
2021-11-24 21:35:00,,0828.3,4.99,0.00,23.8,23.0,00.0,32.9,25.6,08.5,0000.0,0005.62,0000.78,0000.46
2021-11-24 21:36:00,,0828.3,5.00,0.00,23.8,23.0,00.0,32.9,25.6,08.8,0000.0,0006.12,0000.82,0000.47
2021-11-24 21:37:00,,0828.3,5.00,0.00,23.8,23.0,00.0,32.9,25.5,09.0,0000.0,0007.57,0000.85,0000.47
2021-11-24 21:38:00,,0828.3,5.00,0.00,23.8,22.9,00.0,32.9,25.5,09.2,0000.0,0008.64,0000.86,0000.47
2021-11-24 21:39:00,,0828.3,4.99,0.00,23.7,22.9,00.0,32.9,25.5,09.3,0000.0,0009.27,0000.88,0000.47
2021-11-24 21:40:00,,0828.4,5.01,0.00,23.7,22.9,00.0,32.8,25.5,09.3,0000.0,0009.37,0000.90,0000.48
2021-11-24 21:41:00,,0828.4,5.00,0.00,23.7,23.0,00.0,32.8,25.5,09.1,0000.0,0009.38,0000.93,0000.48
2021-11-24 21:42:00,,0828.4,5.00,0.00,23.7,23.0,00.0,32.8,25.5,09.1,0000.0,0009.35,0000.94,0000.48
2021-11-24 21:43:00,,0828.5,4.99,0.00,23.7,22.9,00.0,32.8,25.5,09.1,0000.0,0010.16,0001.01,0000.49
2021-11-24 21:44:00,,0828.5,5.00,0.00,23.7,22.9,00.0,32.8,25.5,09.2,0000.0,0010.63,0001.06,0000.48
2021-11-24 21:45:00,,0828.9,5.01,0.00,23.7,22.9,00.0,32.8,25.5,09.2,0000.0,0010.51,0001.04,0000.48
2021-11-24 21:46:00,,0828.8,5.00,0.00,23.7,22.9,00.0,32.8,25.5,09.3,0000.0,0009.59,0001.02,0000.47
2021-11-24 21:47:00,,0828.8,4.99,0.00,23.7,22.9,00.0,32.8,25.5,09.6,0000.0,0008.95,0000.98,0000.47
2021-11-24 21:48:00,,0828.7,5.00,0.00,23.6,22.9,00.0,32.8,25.4,09.7,0000.0,0008.51,0000.95,0000.47
2021-11-24 21:49:00,,0828.9,5.01,0.00,23.6,22.9,00.0,32.7,25.4,09.7,0000.0,0007.40,0000.96,0000.46
2021-11-24 21:50:00,,0828.7,4.99,0.00,23.6,22.8,00.0,32.7,25.3,09.8,0000.0,0006.14,0000.98,0000.47
2021-11-24 21:51:00,,0829.2,5.01,0.00,23.6,22.8,00.0,32.7,25.3,09.8,0000.0,0006.34,0000.98,0000.46
2021-11-24 21:52:00,,0828.7,4.99,0.00,23.6,22.8,00.0,32.7,25.3,09.9,0000.0,0006.76,0001.03,0000.46
2021-11-24 21:53:00,,0828.8,5.01,0.00,23.6,22.8,00.0,32.7,25.3,09.9,0000.0,0006.91,0001.03,0000.46
2021-11-24 21:54:00,,0828.8,5.00,0.00,23.6,22.8,00.0,32.7,25.3,09.9,0000.0,0005.86,0000.96,0000.45
2021-11-24 21:55:00,,0828.9,4.99,0.00,23.6,22.8,00.0,32.7,25.3,10.0,0000.0,0006.22,0000.88,0000.44
2021-11-24 21:56:00,,0829.2,5.01,0.00,23.6,22.8,00.0,32.7,25.3,10.0,0000.0,0006.03,0000.87,0000.43
2021-11-24 21:57:00,,0829.1,5.01,0.00,23.6,22.8,00.0,32.7,25.3,10.2,0000.0,0006.13,0000.92,0000.43
2021-11-24 21:58:00,,0828.8,4.99,0.00,23.5,22.8,00.0,32.6,25.3,10.5,0000.0,0006.85,0000.97,0000.44
2021-11-24 21:59:00,,0828.8,5.01,0.00,23.5,22.8,00.0,32.6,25.2,11.0,0000.0,0007.08,0001.09,0000.47
